Find Starlink 30240

NORAD ID: 57404 Int'l Des: 2023-102 Owner: SPXS Country: US Constellation: starlink operational
LEOCIRCULAR

当前视图

正在加载3D地球...

关于 Starlink 30240

正在加载描述...

即将过境

Passes for default location (London). Set your location on the main map for personalized predictions.

高度历史

Loading altitude history...

两行轨道根数

1 57404U 23102A 26157.57589575 .00000376 00000-0 23168-4 0 9990
2 57404 43.0057 106.6207 0000367 309.0195 51.0624 15.27571418159831
Epoch: Jun 6, 2026 • Age: 52 hours

当前状态

高度 486.1 km
速度 7.63 km/s
星下点 42.30°N, 3.89°E
发射日期 Jul 19, 2023
运行时间 2.8 years
类型 internet

技术详情

分类 Payload
质量 730.00 kg
干质量 700.00 kg
总质量 730.00 kg
长度 0.30 m
直径 4.10 m
跨度 29.00 m
形状 Box + pan
制造商 SPXS
平台类型 Starlink V2M
阶段状态 In Orbit
所有者/国家 SPXS/US

Most Searched